Total_Precipitation_Accumulation
2.46 2.61 2.62 2.49 2.51 2.63 2.87 3.07 3.09 2.89 2.79 2.71 2.41 2.27 2.22 2.20 2.34 2.22 2.28 2.19 1.75 1.49 1.43 1.44 1.44 1.46 1.53 1.69 1.92 2.19 2.37 2.50 2.66 2.87 3.20 3.54 3.87 4.17
2.76 2.84 2.72 2.48 2.58 2.63 2.78 3.06 3.31 3.34 3.08 2.71 2.49 2.35 2.34 2.08 2.12 1.93 1.96 1.88 1.55 1.39 1.29 1.24 1.22 1.22 1.23 1.29 1.42 1.66 1.86 2.05 2.21 2.32 2.47 2.65 2.90 3.13
2.74 2.66 2.55 2.60 2.74 2.68 2.82 2.98 3.18 3.40 3.15 2.82 2.68 2.62 2.60 2.40 2.24 1.93 1.69 1.56 1.44 1.49 1.34 1.21 1.16 1.16 1.21 1.27 1.33 1.44 1.62 1.81 1.99 2.13 2.29 2.47 2.59 2.69
2.69 2.63 2.51 2.63 2.74 2.72 2.79 2.79 2.85 3.13 3.05 2.85 2.79 2.82 2.69 2.46 2.33 2.13 1.78 1.58 1.59 1.68 1.52 1.35 1.25 1.23 1.21 1.22 1.30 1.39 1.50 1.63 1.80 1.89 1.94 1.99 2.15 2.38
2.63 2.55 2.44 2.51 2.47 2.54 2.57 2.57 2.57 2.66 2.83 2.75 2.66 2.74 2.64 2.43 2.34 2.17 2.04 2.13 1.94 1.78 1.62 1.47 1.36 1.30 1.29 1.23 1.26 1.36 1.46 1.50 1.53 1.67 1.81 1.90 1.96 2.01
2.32 2.25 2.27 2.38 2.43 2.42 2.34 2.34 2.41 2.55 2.64 2.66 2.63 2.71 2.72 2.67 2.52 2.39 2.41 2.36 2.19 1.76 1.64 1.45 1.35 1.24 1.18 1.12 1.15 1.31 1.46 1.52 1.55 1.55 1.63 1.73 1.84 1.93
2.12 1.94 1.97 2.26 2.37 2.32 2.14 2.25 2.33 2.42 2.51 2.63 2.67 2.75 2.82 2.95 2.72 2.45 2.38 2.44 2.31 2.06 1.89 1.64 1.49 1.36 1.32 1.28 1.24 1.26 1.30 1.41 1.52 1.64 1.78 1.88 1.94 1.99
1.89 1.81 1.81 1.89 1.91 1.93 1.92 1.94 1.99 2.07 2.27 2.55 2.65 2.66 2.62 2.71 2.77 2.64 2.54 2.51 2.48 2.37 2.39 2.27 1.93 1.83 1.70 1.56 1.45 1.21 1.09 1.16 1.32 1.44 1.70 1.96 2.20 2.27
1.83 1.88 1.64 1.47 1.59 1.62 1.74 1.72 1.65 1.72 1.86 2.13 2.33 2.34 2.42 2.43 2.66 2.67 2.72 2.79 2.77 2.70 2.69 2.74 2.38 2.07 1.82 1.74 1.64 1.30 1.14 1.09 1.15 1.26 1.39 1.61 1.90 2.21
1.71 1.73 1.67 1.56 1.54 1.65 1.72 1.67 1.52 1.47 1.45 1.44 1.68 1.95 2.15 2.37 2.42 2.49 2.63 2.72 2.73 2.57 2.51 2.61 2.44 2.27 1.95 1.67 1.55 1.35 1.16 1.03 1.00 1.06 1.08 1.16 1.32 1.56
1.67 1.61 1.56 1.52 1.56 1.44 1.42 1.45 1.44 1.41 1.26 1.25 1.33 1.54 1.73 1.79 1.99 2.25 2.48 2.49 2.46 2.24 2.05 2.16 2.22 2.22 2.18 1.92 1.54 1.41 1.21 1.02 0.97 0.98 0.97 0.97 1.04 1.15
1.65 1.61 1.51 1.38 1.35 1.23 1.23 1.38 1.36 1.35 1.35 1.28 1.19 1.22 1.30 1.45 1.53 1.61 1.93 2.15 2.07 2.02 1.77 1.68 1.67 1.77 1.94 1.76 1.48 1.39 1.34 1.19 1.01 0.97 0.96 0.94 1.00 0.95
1.66 1.62 1.56 1.42 1.22 1.17 1.13 1.20 1.26 1.23 1.28 1.32 1.28 1.24 1.32 1.43 1.40 1.38 1.54 1.75 1.82 1.65 1.48 1.55 1.48 1.39 1.40 1.37 1.27 1.14 1.17 1.28 1.23 1.10 1.03 1.02 1.05 1.07
1.84 1.80 1.70 1.49 1.24 1.13 1.05 1.05 1.03 0.96 0.99 1.14 1.17 1.13 1.16 1.27 1.35 1.34 1.39 1.44 1.49 1.42 1.39 1.48 1.54 1.47 1.33 1.20 1.11 1.00 0.97 1.07 1.23 1.42 1.51 1.50 1.37 1.32
1.84 1.88 1.62 1.37 1.20 1.03 1.00 1.00 0.90 0.83 0.94 1.02 1.01 0.99 0.98 1.09 1.29 1.43 1.48 1.49 1.43 1.26 1.13 1.17 1.32 1.47 1.47 1.26 1.05 0.96 0.95 1.01 1.14 1.34 1.49 1.62 1.69 1.70
1.62 1.70 1.56 1.37 1.21 1.07 1.01 0.97 0.91 0.93 1.02 1.03 1.04 1.07 1.08 1.14 1.22 1.31 1.41 1.47 1.44 1.22 1.10 1.10 1.18 1.38 1.43 1.27 1.12 1.03 1.02 1.08 1.14 1.34 1.59 1.71 1.75 1.81
1.64 1.65 1.64 1.49 1.35 1.23 1.20 1.22 1.24 1.19 1.11 1.10 1.13 1.16 1.14 1.14 1.19 1.24 1.31 1.36 1.30 1.12 0.99 1.06 1.17 1.35 1.38 1.35 1.27 1.08 1.05 1.02 1.04 1.23 1.51 1.63 1.68 1.74
1.48 1.47 1.57 1.57 1.48 1.39 1.33 1.32 1.31 1.25 1.19 1.18 1.17 1.16 1.13 1.10 1.13 1.17 1.20 1.21 1.19 1.10 0.99 0.96 1.11 1.33 1.41 1.25 1.03 0.97 0.96 0.93 0.98 1.16 1.30 1.36 1.30 1.32
1.28 1.32 1.40 1.44 1.40 1.37 1.32 1.29 1.23 1.25 1.27 1.22 1.16 1.17 1.15 1.11 1.12 1.15 1.16 1.20 1.19 1.16 1.11 1.11 1.14 1.21 1.25 1.10 0.92 0.78 0.88 0.93 1.01 1.10 1.19 1.17 1.08 1.08
1.10 1.17 1.22 1.27 1.29 1.30 1.29 1.29 1.24 1.25 1.24 1.22 1.17 1.17 1.18 1.14 1.14 1.16 1.12 1.14 1.20 1.23 1.24 1.16 1.12 1.09 1.08 1.11 1.08 0.96 0.83 1.00 1.12 1.09 1.06 1.10 1.07 1.01
1.01 1.04 1.06 1.09 1.14 1.20 1.21 1.24 1.22 1.19 1.18 1.23 1.18 1.16 1.19 1.21 1.21 1.21 1.21 1.23 1.24 1.27 1.24 1.10 1.05 1.18 1.32 1.41 1.30 1.12 1.07 1.04 1.16 1.18 1.17 1.20 1.17 1.13
0.98 1.01 0.96 0.96 1.01 1.09 1.15 1.20 1.19 1.21 1.24 1.22 1.20 1.19 1.18 1.19 1.18 1.20 1.23 1.27 1.28 1.28 1.26 1.29 1.37 1.44 1.47 1.42 1.30 1.28 1.36 1.30 1.24 1.23 1.17 1.17 1.12 1.02
0.94 0.90 0.86 0.87 0.92 0.99 1.05 1.10 1.16 1.24 1.22 1.20 1.22 1.20 1.14 1.14 1.13 1.16 1.16 1.19 1.25 1.34 1.45 1.48 1.44 1.38 1.36 1.39 1.37 1.32 1.31 1.38 1.39 1.32 1.19 1.09 0.99 0.89